[[{"header":{"parameterUnit":"m.s-1","parameterCategory":1,"la1":30.2991,"la2":30.254,"lo1":-89.0895,"lo2":-89.0444,"dy":0.0017,"dx":0.0017,"nx":28,"ny":28,"refTime":"2023-04-02T21:00:00:Z","depth":0,"parameterNumber":2,"parameterNumberName":"U-component_of_WINDS"},"data":[0,0,0,0,0,0,0,0,0,0,0,0,0,0,0,0,0,0,0,0,0,0,0,0,0,0,0,0,0,0,0,0,0,0,0,0,0,0,0,0,0,0,0,0,0,0,0,0,0,0,0,0,0,0,0,0,0,0,-1.1159,-1.1159,0,-1.117,-1.117,-1.117,-1.1165,-1.1164,-1.1164,-1.1164,-1.1174,-1.1175,-1.1175,0,0,0,0,0,0,0,0,0,0,0,0,0,-1.1131,-1.1132,-1.1159,-1.1159,-1.1159,-1.117,-1.117,-1.117,-1.1165,-1.1164,-1.1164,-1.1164,-1.1174,-1.1175,-1.1176,0,0,0,0,0,0,0,0,0,0,0,0,0,-1.1143,-1.1132,-1.1159,-1.1158,-1.1158,-1.117,-1.117,-1.117,-1.1165,-1.1164,-1.1164,-1.1163,-1.1174,-1.1175,-1.1176,-1.1189,0,0,-1.1178,-1.1179,0,0,0,0,0,0,0,0,-1.1142,-1.1144,-1.1158,-1.1158,-1.1158,-1.1165,-1.1164,-1.1177,-1.1165,-1.1162,-1.1164,-1.1163,-1.1172,-1.1173,-1.1176,-1.119,-1.119,-1.1178,-1.1179,-1.1179,-1.1179,0,0,0,0,0,0,0,-1.1141,-1.1143,-1.1163,-1.1158,-1.1158,-1.1156,-1.1157,-1.1167,-1.1169,-1.1162,-1.1162,-1.1163,-1.1172,-1.1175,-1.1176,-1.1191,-1.1178,-1.1179,-1.1179,-1.118,-1.1215,-1.1215,0,0,0,0,0,0,-1.1141,-1.1143,-1.1163,-1.1163,-1.1149,-1.1157,-1.1158,-1.1163,-1.1169,-1.1169,-1.1164,-1.1163,-1.1174,-1.1175,-1.1176,-1.1192,-1.1179,-1.118,-1.118,-1.1214,-1.1215,-1.1215,0,0,0,0,0,0,-1.114,-1.1143,-1.1162,-1.1153,-1.1155,-1.1158,-1.1164,-1.1164,-1.1167,-1.117,-1.117,-1.1167,-1.1173,-1.1175,-1.1186,-1.1192,-1.118,-1.1181,-1.1214,-1.1215,-1.1215,-1.1223,0,0,0,0,0,0,-1.114,-1.1143,-1.1148,-1.1153,-1.1156,-1.1172,-1.1164,-1.1164,-1.1169,-1.1168,-1.1173,-1.1173,-1.1173,-1.1185,-1.1187,-1.1193,-1.1182,-1.1213,-1.1214,-1.1215,-1.1222,-1.1224,-1.1225,0,0,0,0,0,-1.1139,-1.115,-1.1149,-1.1151,-1.1163,-1.1173,-1.1174,-1.1174,-1.1169,-1.1174,-1.1176,-1.1173,-1.1191,-1.1186,-1.1188,-1.1195,-1.1213,-1.1214,-1.1215,-1.1222,-1.1224,-1.1225,0,0,0,0,0,0,-1.1146,-1.1151,-1.1149,-1.1163,-1.1167,-1.1172,-1.1179,-1.1176,-1.1182,-1.1181,-1.118,-1.1182,-1.1192,-1.1195,-1.1189,-1.1207,-1.1201,-1.1203,-1.1205,-1.1207,-1.1209,-1.1208,-1.1182,0,0,0,0,0,-1.115,-1.1157,-1.1161,-1.1172,-1.1175,-1.1176,-1.118,-1.118,-1.1184,-1.1186,-1.1189,-1.1193,-1.1199,-1.1204,-1.121,-1.1223,-1.1223,-1.1228,-1.123,-1.1231,-1.1232,-1.1238,-1.1239,-1.1219,-1.1219,-1.1219,0,0,-1.1156,-1.116,-1.1165,-1.1174,-1.1177,-1.1185,-1.1178,-1.1186,-1.1191,-1.1187,-1.1197,-1.1199,-1.1204,-1.1215,-1.1221,-1.1217,-1.1238,-1.1232,-1.1233,-1.1233,-1.1239,-1.1241,-1.1242,-1.1219,-1.1219,-1.1219,0,0,-1.1172,-1.1176,-1.1186,-1.1189,-1.1194,-1.1195,-1.1197,-1.1201,-1.1202,-1.1212,-1.1209,-1.1215,-1.1227,-1.1229,-1.1233,-1.1248,-1.1245,-1.125,-1.1258,-1.1263,-1.1265,-1.1266,-1.1271,-1.1273,-1.1251,-1.1251,-1.1251,0,-1.118,-1.1191,-1.1191,-1.1199,-1.1203,-1.1199,-1.1208,-1.1211,-1.1218,-1.122,-1.1217,-1.123,-1.1233,-1.1245,-1.1248,-1.1251,-1.1253,-1.1249,-1.1265,-1.1266,-1.1268,-1.1272,-1.1274,-1.1252,-1.1252,-1.1252,-1.1252,0,-1.12,-1.1208,-1.1215,-1.1221,-1.1225,-1.1234,-1.1234,-1.1238,-1.1237,-1.1238,-1.1247,-1.1251,-1.1257,-1.126,-1.1259,-1.1271,-1.1268,-1.1265,-1.1259,-1.127,-1.1274,-1.1276,-1.1253,-1.1252,-1.1252,-1.1252,0,0,-1.1222,-1.1227,-1.1229,-1.1231,-1.1236,-1.1241,-1.1249,-1.1255,-1.1259,-1.1263,-1.1269,-1.1278,-1.1275,-1.1278,-1.1277,-1.1282,-1.1293,-1.1278,-1.1278,-1.128,-1.1305,-1.1307,-1.1309,-1.1291,-1.1291,-1.1292,-1.1304,0,-1.1237,-1.1251,-1.125,-1.1263,-1.1269,-1.1265,-1.1272,-1.1275,-1.1276,-1.1281,-1.1282,-1.1288,-1.1283,-1.1285,-1.129,-1.1291,-1.1298,-1.129,-1.1296,-1.1296,-1.1294,-1.1311,-1.1313,-1.1325,-1.1306,-1.1306,-1.1306,0,-1.1257,-1.1262,-1.1275,-1.1277,-1.128,-1.1286,-1.1291,-1.1296,-1.1299,-1.1299,-1.1302,-1.13,-1.1307,-1.1301,-1.131,-1.1305,-1.1307,-1.1308,-1.1308,-1.1308,-1.1301,-1.1311,-1.1329,-1.133,-1.1309,-1.1309,-1.1308,0,-1.127,-1.128,-1.1288,-1.129,-1.1294,-1.1298,-1.13,-1.1302,-1.1305,-1.1309,-1.1311,-1.1316,-1.1318,-1.1322,-1.1321,-1.1317,-1.133,-1.1324,-1.1329,-1.1329,-1.1332,-1.1332,-1.135,-1.1335,-1.1335,-1.1335,-1.1335,0,-1.1287,-1.1295,-1.1294,-1.1299,-1.1308,-1.1306,-1.1315,-1.1316,-1.1318,-1.1323,-1.132,-1.1325,-1.1324,-1.1328,-1.1327,-1.1334,-1.1336,-1.1336,-1.1335,-1.1335,-1.1335,-1.1337,-1.1335,-1.1335,-1.1335,-1.1335,-1.1335,0,-1.1303,-1.1303,-1.1312,-1.1314,-1.1314,-1.132,-1.1322,-1.1327,-1.1327,-1.1333,-1.1334,-1.1335,-1.1339,-1.1339,-1.1345,-1.1344,-1.1353,-1.1352,-1.1351,-1.1351,-1.1356,-1.1355,-1.1375,-1.1377,-1.1362,-1.1362,-1.1362,0,-1.1313,-1.1319,-1.1321,-1.1324,-1.1326,-1.1331,-1.1334,-1.1333,-1.1336,-1.1339,-1.1343,-1.1348,-1.1351,-1.1359,-1.136,-1.1364,-1.1362,-1.1369,-1.1363,-1.1362,-1.1361,-1.1361,-1.1361,-1.137,-1.137,-1.137,-1.137,0,-1.1331,-1.1331,-1.1335,-1.1339,-1.1342,-1.1345,-1.1348,-1.1351,-1.135,-1.1353,-1.1358,-1.1361,-1.1366,-1.137,-1.1374,-1.1375,-1.1372,-1.1372,-1.1374,-1.1374,-1.1373,-1.1372,-1.1354,-1.1372,-1.1372,-1.1372,-1.1371,-1.1371,-1.1344,-1.1349,-1.1351,-1.1355,-1.1357,-1.1359,-1.1363,-1.1364,-1.1368,-1.1372,-1.1371,-1.1376,-1.1378,-1.1382,-1.1384,-1.1387,-1.1385,-1.1387,-1.1387,-1.1388,-1.1388,-1.1373,-1.1388,-1.1388,-1.1388,-1.1388,-1.1388,0,-1.1361,-1.1362,-1.1366,-1.137,-1.1373,-1.137,-1.1373,-1.1376,-1.138,-1.1382,-1.1385,-1.139,-1.1394,-1.1395,-1.1398,-1.1401,-1.14,-1.1402,-1.1401,-1.1401,-1.139,-1.1389,-1.1403,-1.1403,-1.1403,-1.1403,-1.1403,-1.1403,-1.137,-1.1377,-1.1377,-1.1384,-1.1385,-1.139,-1.1392,-1.1393,-1.1395,-1.14,-1.1403,-1.1404,-1.1405,-1.1408,-1.1411,-1.1411,-1.1412,-1.1415,-1.1414,-1.1404,-1.1402,-1.1401,-1.1399,-1.1415,-1.1415,-1.1425,-1.1425,-1.1425]},{"header":{"parameterUnit":"m.s-1","parameterCategory":1,"la1":30.2991,"la2":30.254,"lo1":-89.0895,"lo2":-89.0444,"dy":0.0017,"dx":0.0017,"nx":28,"ny":28,"refTime":"2023-04-02T21:00:00:Z","depth":0,"parameterNumber":3,"parameterNumberName":"V-component_of_WINDS"},"data":[0,0,0,0,0,0,0,0,0,0,0,0,0,0,0,0,0,0,0,0,0,0,0,0,0,0,0,0,0,0,0,0,0,0,0,0,0,0,0,0,0,0,0,0,0,0,0,0,0,0,0,0,0,0,0,0,0,0,3.306,3.3061,0,3.3185,3.3186,3.3188,3.3222,3.3221,3.322,3.322,3.3352,3.3356,3.336,0,0,0,0,0,0,0,0,0,0,0,0,0,3.2857,3.286,3.306,3.3061,3.3063,3.3184,3.3186,3.3188,3.3222,3.3221,3.322,3.3219,3.335,3.3355,3.336,0,0,0,0,0,0,0,0,0,0,0,0,0,3.296,3.2862,3.3059,3.3094,3.3099,3.3184,3.3186,3.3188,3.3222,3.3221,3.322,3.3219,3.3349,3.3355,3.3361,3.3421,0,0,3.338,3.3383,0,0,0,0,0,0,0,0,3.2954,3.2967,3.3088,3.3092,3.3097,3.3187,3.3163,3.3267,3.3223,3.3176,3.322,3.3219,3.3298,3.3308,3.3334,3.3427,3.3433,3.3381,3.3384,3.3387,3.3389,0,0,0,0,0,0,0,3.2947,3.2962,3.3109,3.309,3.3095,3.3106,3.3119,3.3183,3.3241,3.318,3.3182,3.3196,3.33,3.3328,3.3337,3.3435,3.338,3.3386,3.339,3.3392,3.3589,3.359,0,0,0,0,0,0,3.2933,3.2956,3.3105,3.3113,3.3021,3.311,3.3125,3.3159,3.3241,3.3252,3.3197,3.3198,3.3318,3.333,3.3342,3.3421,3.3387,3.3393,3.3396,3.3587,3.3589,3.3591,0,0,0,0,0,0,3.2928,3.2946,3.31,3.3035,3.3056,3.3115,3.3153,3.3162,3.319,3.3254,3.3265,3.3214,3.3317,3.3333,3.3402,3.3426,3.3396,3.3401,3.3586,3.3588,3.359,3.3578,0,0,0,0,0,0,3.2922,3.2944,3.2966,3.3035,3.3059,3.3156,3.3154,3.3165,3.32,3.3202,3.3273,3.3284,3.3318,3.3393,3.3408,3.3434,3.3406,3.3584,3.3587,3.3589,3.3577,3.358,3.3582,0,0,0,0,0,3.2915,3.2958,3.2967,3.2985,3.3088,3.3157,3.3171,3.3208,3.3202,3.3226,3.3268,3.3282,3.3421,3.3399,3.3417,3.3446,3.3583,3.3586,3.3589,3.3575,3.3579,3.3582,0,0,0,0,0,0,3.289,3.2967,3.2978,3.3044,3.3094,3.3163,3.3194,3.321,3.3263,3.3263,3.3308,3.3324,3.339,3.3425,3.3399,3.3511,3.3502,3.3509,3.3486,3.349,3.3492,3.3483,3.3411,0,0,0,0,0,3.2892,3.2941,3.3006,3.3058,3.3083,3.3134,3.3166,3.319,3.3244,3.3265,3.3312,3.3365,3.3421,3.3457,3.3512,3.3582,3.36,3.361,3.3613,3.3615,3.3621,3.3665,3.3671,3.3602,3.3602,3.3602,0,0,3.2897,3.2945,3.2973,3.3055,3.3096,3.3148,3.3151,3.3205,3.3245,3.3274,3.3342,3.3378,3.3441,3.3511,3.3545,3.3542,3.3644,3.3619,3.362,3.3626,3.3669,3.3675,3.3681,3.3604,3.3603,3.3603,0,0,3.2933,3.2973,3.3023,3.3064,3.3127,3.3161,3.3173,3.324,3.3265,3.3334,3.3358,3.3407,3.3501,3.3546,3.3581,3.3637,3.3653,3.3654,3.3669,3.371,3.3716,3.3721,3.3744,3.3751,3.3659,3.3659,3.3659,0,3.2932,3.3009,3.3046,3.31,3.3136,3.3164,3.3217,3.3255,3.3333,3.3359,3.3354,3.3476,3.352,3.3603,3.3617,3.3643,3.3661,3.3646,3.3712,3.3717,3.3723,3.3745,3.3754,3.3659,3.3659,3.3659,3.3659,0,3.3006,3.306,3.3092,3.3167,3.3207,3.3259,3.3306,3.3343,3.3364,3.34,3.3472,3.3526,3.3593,3.3615,3.3636,3.3702,3.3699,3.3702,3.3695,3.3729,3.3751,3.3759,3.3659,3.3659,3.3659,3.3659,0,0,3.303,3.3125,3.3136,3.3172,3.3244,3.3287,3.3342,3.3408,3.344,3.3493,3.3543,3.3623,3.3628,3.3668,3.3695,3.3731,3.3776,3.3731,3.3733,3.374,3.3857,3.3855,3.3864,3.3787,3.3789,3.379,3.3852,0,3.3077,3.3175,3.3211,3.3293,3.3345,3.3373,3.3422,3.3473,3.3508,3.3559,3.3599,3.3656,3.3657,3.3682,3.3718,3.3763,3.3801,3.3758,3.3837,3.3839,3.3822,3.3875,3.3873,3.3929,3.3861,3.3862,3.3863,0,3.3145,3.3199,3.3285,3.3354,3.3377,3.342,3.3485,3.3532,3.3592,3.3615,3.3661,3.3686,3.3748,3.3736,3.3824,3.3794,3.3829,3.3855,3.3859,3.3869,3.3854,3.3889,3.3947,3.3957,3.3877,3.3876,3.3875,0,3.3157,3.3251,3.3316,3.3345,3.3426,3.3456,3.3491,3.355,3.3588,3.3645,3.3671,3.3735,3.377,3.3821,3.3864,3.385,3.3949,3.3939,3.3973,3.3972,3.3994,3.3992,3.406,3.4011,3.4011,3.4011,3.4011,0,3.3207,3.3259,3.3323,3.3363,3.3424,3.3466,3.3526,3.3563,3.3616,3.3666,3.3694,3.3741,3.3794,3.3848,3.3882,3.3952,3.3967,3.399,3.3999,3.3989,3.3986,3.4013,3.4012,3.4013,3.4013,3.4012,3.4012,0,3.3231,3.3275,3.3348,3.3419,3.3438,3.348,3.3542,3.3584,3.3621,3.3684,3.3702,3.376,3.3826,3.3874,3.3958,3.3982,3.4058,3.4065,3.4037,3.4042,3.4074,3.4072,3.4164,3.418,3.4118,3.4118,3.4119,0,3.3261,3.3302,3.3378,3.3413,3.3448,3.3504,3.3543,3.3587,3.3628,3.3701,3.3734,3.3802,3.3858,3.3963,3.4015,3.4081,3.4092,3.412,3.4102,3.4092,3.4096,3.4094,3.41,3.4123,3.4124,3.4124,3.4124,0,3.331,3.3331,3.3385,3.3449,3.3495,3.3548,3.3601,3.3628,3.3682,3.3727,3.3794,3.3838,3.3925,3.3994,3.4065,3.4105,3.4125,3.4129,3.4141,3.4132,3.4116,3.4128,3.4047,3.4127,3.4127,3.4127,3.4127,3.4126,3.3341,3.338,3.344,3.3501,3.3546,3.3595,3.3639,3.3681,3.3738,3.3812,3.3835,3.3906,3.3968,3.4066,3.4107,3.4165,3.4164,3.418,3.4185,3.4189,3.419,3.4105,3.4178,3.4178,3.4178,3.4178,3.4178,0,3.3394,3.3435,3.349,3.3564,3.3613,3.3626,3.3686,3.3727,3.3789,3.3844,3.39,3.3979,3.4046,3.4104,3.4174,3.421,3.4221,3.4227,3.4226,3.4236,3.4185,3.4169,3.4217,3.4217,3.4217,3.4217,3.4217,3.4217,3.3428,3.3496,3.3524,3.3616,3.3657,3.3726,3.376,3.3807,3.3852,3.3939,3.3994,3.4031,3.4089,3.4164,3.4227,3.4243,3.4269,3.4273,3.4291,3.4243,3.4239,3.4234,3.422,3.4277,3.4277,3.4337,3.4338,3.4338]}]]